Hourly Data Report for June 07, 2012

All times are specified in Local Standard Time (LST). Add 1 hour to adjust for Daylight Saving Time where and when it is observed.

MONCTON INTL A
NEW BRUNSWICK

46°06'44.000" N
64°40'43.000" W
70.70 m
8103201
71705
YQM

Download Data

Hourly Data (June 2012)
Hourly Data Report for June 7, 2012
Temp Definition
°C
Dew Point Temp Definition
°C
Rel Hum Definition
%
Wind Dir Definition
10's deg

Wind Spd Definition
km/h
Visibility Definition
km
Stn Press Definition
kPa
Hmdx Definition


Wind Chill Definition


Weather Definition


TIME
00:00 Legend Double Dagger 7.0 6.6 97 32 14 10.0 100.59     Drizzle
01:00 Legend Double Dagger 6.8 6.4 97 33 13 10.0 100.55     Rain Showers
02:00 Legend Double Dagger 6.7 6.3 97 33 17 10.0 100.55     Rain Showers
03:00 Legend Double Dagger 6.5 6.1 97 32 14 10.0 100.52     LegendNANA
04:00 Legend Double Dagger 6.4 6.0 97 31 14 10.0 100.51     LegendNANA
05:00 Legend Double Dagger 6.3 5.9 97 26 8 10.0 100.52     Cloudy
06:00 Legend Double Dagger 6.8 6.1 95 26 11 10.0 100.51     LegendNANA
07:00 Legend Double Dagger 7.5 6.5 93 26 14 10.0 100.49     LegendNANA
08:00 Legend Double Dagger 8.7 7.0 89 25 17 10.0 100.47     Mostly Cloudy
09:00 Legend Double Dagger 10.8 7.7 81 23 22 10.0 100.41     LegendNANA
10:00
11:00 Legend Double Dagger 14.0 8.7 70 32 19 10.0 100.32     Mostly Cloudy
12:00 Legend Double Dagger 15.7 8.3 61 32 19 10.0 100.27     LegendNANA
13:00 Legend Double Dagger 15.6 9.1 65 4 23 10.0 100.28     LegendNANA
14:00 Legend Double Dagger 16.2 8.8 61 33 21 10.0 100.26     Mostly Cloudy
15:00 Legend Double Dagger 16.8 5.5 47 35 21 10.0 100.25     LegendNANA
16:00 Legend Double Dagger 16.9 3.7 41 1 15 10.0 100.25     LegendNANA
17:00 Legend Double Dagger 16.5 2.2 38 1 7 10.0 100.23     Mostly Cloudy
18:00 Legend Double Dagger 16.1 1.5 37 2 9 10.0 100.21     LegendNANA
19:00 Legend Double Dagger 13.3 4.5 55 9 10 10.0 100.22     LegendNANA
20:00 Legend Double Dagger 12.2 2.7 52 12 9 10.0 100.22     Mostly Cloudy
21:00 Legend Double Dagger 11.2 3.0 57 13 10 10.0 100.24     LegendNANA
22:00 Legend Double Dagger 8.9 4.9 76 16 11 10.0 100.26     LegendNANA
23:00 Legend Double Dagger 8.2 6.7 90 19 16 10.0 100.24     Mainly Clear

Notes on Data Quality.

Legend

  • E = Estimated
  • M = Missing
  • NA = Not Available
  • ‡ = Partner data that is not subject to review by the National Climate Archives
Date modified: